Weather History for K2G4 - August, 2014

Change the Weather History Date:

Saturday, August 9, 2014

  Actual Average (KMGW) Record (KMGW)
Temperature  
Mean Temperature 64 °F 73 °F  
Max Temperature 73 °F 83 °F 94 °F (1988)
Min Temperature 55 °F 62 °F 46 °F (1989)
Degree Days  
Heating Degree Days 1 0  
Month to date heating degree days 0  
Since 1 June heating degree days 34  
Since 1 July heating degree days 3  
Cooling Degree Days 0 8  
Month to date cooling degree days 72  
Year to date cooling degree days 556  
Since 1 June cooling degree days 489  
Growing Degree Days 14 (Base 50)    
Moisture  
Dew Point 61 °F    
Average Humidity 79    
Maximum Humidity 100    
Minimum Humidity 53    
Precipitation  
Precipitation 0.00 in 0.12 in 1.65 in (1962)
Month to date precipitation 1.08  
Year to date precipitation 27.00  
Sea Level Pressure  
Sea Level Pressure 30.18 in    
Wind  
Wind Speed 9 mph (SE)    
Max Wind Speed 13 mph    
Max Gust Speed 21 mph    
Visibility 8 miles    
Events      
T = Trace of Precipitation, MM = Missing Value Source: NWS Daily Summary

Daily Weather History Graph

Daily Weather History Graph

Search for Another Location

Airport or City:

Trip Planner

Search our weather history database for the weather conditions in past years. The results will help you decide how hot, cold, wet, or windy it might be!

Date:

Astronomy

Aug. 09, 2014 Rise Set
Actual Time 6:24 AM EDT 8:20 PM EDT
Civil Twilight 5:54 AM EDT 8:50 PM EDT
Nautical Twilight 5:19 AM EDT 9:25 PM EDT
Astronomical Twilight 4:40 AM EDT 10:04 PM EDT
Moon 7:21 PM EDT (8/9) 5:02 AM EDT (8/9)
Length of Visible Light 14h 55m
Length of Day
13h 56m
Waxing Gibbous, 98% of the Moon is Illuminated
Aug 9
Waxing Gibbous
Aug 10
Full
Aug 17
Last Quarter
Aug 25
New
Sep 2
First Quarter

Hourly Weather History & Observations

Time (EDT) Temp. Dew Point Humidity Pressure Visibility Wind Dir Wind Speed Gust Speed Precip Events Conditions
12:00 AM 59.0 °F 59.0 °F 100% 30.18 in 10.0 mi ESE 10.4 mph - N/A   Clear
12:20 AM 59.0 °F - N/A% 30.18 in 10.0 mi ESE 10.4 mph - N/A   Clear
12:40 AM 59.0 °F - N/A% 30.18 in 10.0 mi ESE 9.2 mph - N/A   Clear
1:20 AM 59.0 °F - N/A% 30.17 in 10.0 mi ESE 10.4 mph - N/A   Clear
1:40 AM 57.2 °F - N/A% 30.18 in 10.0 mi SE 8.1 mph - N/A   Clear
2:00 AM 57.2 °F - N/A% 30.18 in 10.0 mi SE 6.9 mph - N/A   Clear
2:20 AM 57.2 °F - N/A% 30.17 in 10.0 mi SE 8.1 mph - N/A   Clear
2:40 AM 59.0 °F - N/A% 30.16 in 10.0 mi ESE 10.4 mph - N/A   Scattered Clouds
3:00 AM 57.2 °F - N/A% 30.16 in 10.0 mi ESE 9.2 mph - N/A   Scattered Clouds
3:20 AM 57.2 °F - N/A% 30.16 in 7.0 mi SE 6.9 mph - N/A   Scattered Clouds
3:40 AM 55.4 °F - N/A% 30.16 in 7.0 mi ESE 8.1 mph - N/A   Clear
4:00 AM 55.4 °F - N/A% 30.16 in 7.0 mi SE 6.9 mph - N/A   Scattered Clouds
4:20 AM 55.4 °F - N/A% 30.16 in 7.0 mi SE 8.1 mph - N/A   Scattered Clouds
4:40 AM 57.2 °F - N/A% 30.16 in 7.0 mi SE 6.9 mph - N/A   Mostly Cloudy
5:00 AM 55.4 °F - N/A% 30.17 in 5.0 mi SE 6.9 mph - N/A   Haze
5:20 AM 57.2 °F - N/A% 30.17 in 4.0 mi SE 5.8 mph - N/A   Haze
5:40 AM 57.2 °F - N/A% 30.16 in 4.0 mi SE 5.8 mph - N/A   Haze
6:00 AM 57.2 °F - N/A% 30.16 in 4.0 mi ESE 9.2 mph - N/A   Haze
6:20 AM 57.2 °F - N/A% 30.17 in 4.0 mi ESE 8.1 mph - N/A   Haze
6:40 AM 59.0 °F - N/A% 30.17 in 2.0 mi SE 8.1 mph - N/A   Mostly Cloudy
7:20 AM 57.2 °F - N/A% 30.18 in 1.2 mi SE 6.9 mph - N/A   Mist
7:40 AM 59.0 °F - N/A% 30.18 in 2.0 mi SSE 9.2 mph - N/A   Overcast
8:00 AM 59.0 °F - N/A% 30.18 in 2.0 mi SE 10.4 mph - N/A   Overcast
8:20 AM 60.8 °F - N/A% 30.18 in 3.0 mi SE 9.2 mph - N/A   Overcast
8:40 AM 60.8 °F - N/A% 30.18 in 5.0 mi SE 9.2 mph - N/A   Haze
9:00 AM 60.8 °F - N/A% 30.18 in 5.0 mi SE 8.1 mph - N/A   Haze
9:20 AM 62.6 °F - N/A% 30.19 in 7.0 mi SE 9.2 mph - N/A   Scattered Clouds
9:40 AM 62.6 °F - N/A% 30.19 in 7.0 mi SSE 9.2 mph - N/A   Scattered Clouds
10:00 AM 62.6 °F - N/A% 30.19 in 7.0 mi SE 10.4 mph - N/A   Scattered Clouds
10:20 AM 64.4 °F - N/A% 30.19 in 7.0 mi SE 9.2 mph - N/A   Mostly Cloudy
10:40 AM 64.4 °F - N/A% 30.19 in 7.0 mi SSE 10.4 mph - N/A   Mostly Cloudy
11:00 AM 68.0 °F 64.4 °F 88% 30.20 in 7.0 mi SE 11.5 mph 16.1 mph N/A   Mostly Cloudy
11:20 AM 68.0 °F 64.4 °F 88% 30.19 in 10.0 mi SE 9.2 mph 18.4 mph N/A   Scattered Clouds
11:40 AM 68.0 °F 62.6 °F 83% 30.19 in 10.0 mi ESE 11.5 mph - N/A   Scattered Clouds
12:00 PM 68.0 °F 64.4 °F 88% 30.20 in 10.0 mi ESE 11.5 mph - N/A   Scattered Clouds
12:20 PM 68.0 °F 64.4 °F 88% 30.20 in 7.0 mi ESE 10.4 mph - N/A   Scattered Clouds
12:40 PM 68.0 °F 64.4 °F 88% 30.20 in 7.0 mi SE 12.7 mph 16.1 mph N/A   Scattered Clouds
1:00 PM 69.8 °F 62.6 °F 78% 30.20 in 7.0 mi ESE 9.2 mph 17.3 mph N/A   Mostly Cloudy
1:20 PM 69.8 °F 62.6 °F 78% 30.19 in 10.0 mi SE 8.1 mph 16.1 mph N/A   Scattered Clouds
2:00 PM 71.6 °F 60.8 °F 69% 30.19 in 10.0 mi SSE 12.7 mph 20.7 mph N/A   Scattered Clouds
2:20 PM 71.6 °F 60.8 °F 69% 30.18 in 10.0 mi SE 12.7 mph - N/A   Scattered Clouds
2:40 PM 73.4 °F 60.8 °F 65% 30.18 in 10.0 mi SE 11.5 mph - N/A   Scattered Clouds
3:00 PM 73.4 °F 60.8 °F 65% 30.18 in 10.0 mi ESE 10.4 mph 16.1 mph N/A   Scattered Clouds
3:20 PM 71.6 °F 60.8 °F 69% 30.17 in 10.0 mi SE 9.2 mph - N/A   Clear
3:40 PM 71.6 °F 59.0 °F 64% 30.17 in 10.0 mi ESE 11.5 mph - N/A   Scattered Clouds
4:20 PM 73.4 °F 60.8 °F 65% 30.16 in 10.0 mi SE 10.4 mph - N/A   Clear
5:00 PM 73.4 °F 59.0 °F 61% 30.15 in 10.0 mi SE 6.9 mph - N/A   Clear
5:20 PM 73.4 °F 57.2 °F 57% 30.16 in 10.0 mi ESE 10.4 mph - N/A   Clear
5:40 PM 73.4 °F 55.4 °F 53% 30.16 in 10.0 mi ESE 9.2 mph - N/A   Clear
6:00 PM 73.4 °F 57.2 °F 57% 30.16 in 10.0 mi East 9.2 mph - N/A   Clear
6:20 PM 71.6 °F 59.0 °F 64% 30.16 in 10.0 mi ESE 9.2 mph - N/A   Clear
6:40 PM 71.6 °F 59.0 °F 64% 30.15 in 10.0 mi East 8.1 mph - N/A   Clear
7:40 PM 68.0 °F 59.0 °F 73% 30.16 in 10.0 mi ESE 6.9 mph - N/A   Clear
8:00 PM 68.0 °F 60.8 °F 78% 30.16 in 10.0 mi ESE 9.2 mph - N/A   Clear
8:20 PM 66.2 °F 60.8 °F 83% 30.16 in 10.0 mi ESE 6.9 mph - N/A   Clear
8:40 PM 64.4 °F 62.6 °F 94% 30.17 in 10.0 mi ESE 8.1 mph - N/A   Clear
9:00 PM 64.4 °F 62.6 °F 94% 30.17 in 10.0 mi SE 6.9 mph - N/A   Clear
9:20 PM 62.6 °F 62.6 °F 100% 30.17 in 10.0 mi SE 8.1 mph - N/A   Clear
9:40 PM 62.6 °F 62.6 °F 100% 30.18 in 10.0 mi SE 8.1 mph - N/A   Clear
10:00 PM 62.6 °F 62.6 °F 100% 30.18 in 10.0 mi SE 6.9 mph - N/A   Clear
10:20 PM 62.6 °F 62.6 °F 100% 30.19 in 10.0 mi SE 8.1 mph - N/A   Clear
10:40 PM 62.6 °F 62.6 °F 100% 30.19 in 10.0 mi SE 6.9 mph - N/A   Clear
11:00 PM 60.8 °F - N/A% 30.19 in 10.0 mi SE 6.9 mph - N/A   Clear
11:20 PM 60.8 °F - N/A% 30.20 in 10.0 mi SE 6.9 mph - N/A   Clear